When you browse on this site, cookies collect data to enhance your experience and personalize the content and advertising you see.
Visit our Privacy Policy to learn more. By continuing to use the site, you agree to this use of cookies and data.
  • In Hungary
  • List of Countries
  • For 7 days
  • Water Temperature
  • Weather Map
  • News
  • Weather Widgets
  • user-avatar
    Login

    Hourly Weather Barchlin

    Today, 7 December, Saturday

    Time Temperature Precipitation Wind Pressure Humidity
    00:00 +2°C° 0 mm 6 mps 749 mmHg 59%
    01:00 +2°C° 0 mm 6 mps 749 mmHg 62%
    02:00 +2°C° 0.2 mm 6 mps 748 mmHg 67%
    03:00 +2°C° 0.2 mm 6 mps 747 mmHg 72%
    04:00 +3°C° 0.2 mm 7 mps 747 mmHg 77%
    05:00 +3°C° 0.4 mm 7 mps 747 mmHg 79%
    06:00 +4°C° 0.4 mm 7 mps 747 mmHg 82%
    07:00 +4°C° 0 mm 7 mps 747 mmHg 83%
    08:00 +5°C° 0.1 mm 7 mps 747 mmHg 82%
    09:00 +5°C° 0.1 mm 8 mps 747 mmHg 82%
    10:00 +5°C° 0.1 mm 8 mps 747 mmHg 82%
    11:00 +6°C° 0.1 mm 8 mps 747 mmHg 81%
    12:00 +6°C° 0.1 mm 9 mps 748 mmHg 81%
    13:00 +6°C° 0.1 mm 9 mps 748 mmHg 80%
    14:00 +6°C° 0 mm 8 mps 748 mmHg 80%
    15:00 +6°C° 0 mm 8 mps 749 mmHg 79%
    16:00 +6°C° 0 mm 7 mps 749 mmHg 78%
    17:00 +6°C° 0.1 mm 7 mps 749 mmHg 79%
    18:00 +6°C° 0.1 mm 7 mps 750 mmHg 80%
    19:00 +6°C° 0.1 mm 7 mps 751 mmHg 80%
    20:00 +6°C° 0 mm 7 mps 751 mmHg 81%
    21:00 +6°C° 0 mm 7 mps 751 mmHg 82%
    22:00 +7°C° 0 mm 6 mps 751 mmHg 82%
    23:00 +7°C° 0 mm 6 mps 751 mmHg 82%

    Tomorrow, 8 December, Sunday

    Time Temperature Precipitation Wind Pressure Humidity
    00:00 +7°C° 0 mm 6 mps 752 mmHg 81%
    01:00 +5°C° 0 mm 6 mps 752 mmHg 81%
    02:00 +5°C° 0 mm 6 mps 751 mmHg 81%
    03:00 +5°C° 0 mm 6 mps 751 mmHg 82%
    04:00 +6°C° 0 mm 5 mps 751 mmHg 82%
    05:00 +5°C° 0 mm 5 mps 751 mmHg 82%
    06:00 +5°C° 0 mm 5 mps 751 mmHg 81%
    07:00 +5°C° 0 mm 5 mps 751 mmHg 81%
    08:00 +4°C° 0 mm 6 mps 750 mmHg 79%
    09:00 +5°C° 0 mm 6 mps 750 mmHg 76%
    10:00 +5°C° 0 mm 7 mps 749 mmHg 74%
    11:00 +5°C° 0 mm 7 mps 748 mmHg 72%
    12:00 +6°C° 0 mm 7 mps 747 mmHg 70%
    13:00 +6°C° 0 mm 7 mps 747 mmHg 68%
    14:00 +6°C° 0 mm 7 mps 746 mmHg 70%
    15:00 +8°C° 0 mm 7 mps 745 mmHg 72%
    16:00 +8°C° 0 mm 7 mps 745 mmHg 73%
    17:00 +8°C° 0.3 mm 7 mps 745 mmHg 76%
    18:00 +8°C° 0.3 mm 7 mps 744 mmHg 79%
    19:00 +8°C° 0.3 mm 7 mps 744 mmHg 82%
    20:00 +8°C° 0.1 mm 6 mps 744 mmHg 82%
    21:00 +8°C° 0.1 mm 6 mps 744 mmHg 83%
    22:00 +8°C° 0.1 mm 5 mps 744 mmHg 83%
    23:00 +8°C° 0.1 mm 5 mps 744 mmHg 83%

    Day after tomorrow, 9 December, Monday

    Time Temperature Precipitation Wind Pressure Humidity
    00:00 +8°C° 0.1 mm 5 mps 743 mmHg 84%
    01:00 +7°C° 0.1 mm 4 mps 743 mmHg 84%
    02:00 +7°C° 0.1 mm 4 mps 742 mmHg 82%
    03:00 +7°C° 0.1 mm 5 mps 742 mmHg 79%
    04:00 +7°C° 0.1 mm 5 mps 741 mmHg 77%
    05:00 +6°C° 0 mm 5 mps 742 mmHg 76%
    06:00 +6°C° 0 mm 5 mps 742 mmHg 76%
    07:00 +5°C° 0 mm 5 mps 742 mmHg 75%
    08:00 +5°C° 0 mm 6 mps 742 mmHg 73%
    09:00 +5°C° 0 mm 6 mps 742 mmHg 71%
    10:00 +5°C° 0 mm 7 mps 743 mmHg 68%
    11:00 +6°C° 0 mm 7 mps 742 mmHg 65%
    12:00 +6°C° 0 mm 7 mps 742 mmHg 63%
    13:00 +8°C° 0 mm 7 mps 742 mmHg 60%
    14:00 +7°C° 0 mm 6 mps 742 mmHg 62%
    15:00 +7°C° 0 mm 6 mps 742 mmHg 64%
    16:00 +7°C° 0 mm 5 mps 741 mmHg 66%
    17:00 +5°C° 0.1 mm 6 mps 742 mmHg 69%
    18:00 +5°C° 0.1 mm 6 mps 742 mmHg 71%
    19:00 +5°C° 0.1 mm 7 mps 742 mmHg 73%
    20:00 +4°C° 0 mm 7 mps 742 mmHg 74%
    21:00 +4°C° 0 mm 7 mps 742 mmHg 75%
    22:00 +4°C° 0 mm 8 mps 742 mmHg 76%
    23:00 +4°C° 0.1 mm 8 mps 743 mmHg 78%

    10 December, Tuesday

    Time Temperature Precipitation Wind Pressure Humidity
    00:00 +4°C° 0.1 mm 8 mps 744 mmHg 81%
    01:00 +3°C° 0.1 mm 9 mps 744 mmHg 84%
    02:00 +3°C° 0.3 mm 9 mps 745 mmHg 80%
    03:00 +2°C° 0.3 mm 9 mps 746 mmHg 76%
    04:00 +2°C° 0.3 mm 9 mps 747 mmHg 72%
    05:00 +1°C° 0 mm 8 mps 748 mmHg 72%
    06:00 +1°C° 0 mm 8 mps 749 mmHg 73%
    07:00 0°C° 0 mm 7 mps 750 mmHg 74%
    08:00 0°C° 0.1 mm 7 mps 751 mmHg 79%
    09:00 +2°C° 0.1 mm 7 mps 752 mmHg 85%
    10:00 +2°C° 0.1 mm 6 mps 754 mmHg 90%
    11:00 +2°C° 0.1 mm 7 mps 755 mmHg 86%
    12:00 +2°C° 0.1 mm 7 mps 756 mmHg 81%
    13:00 +1°C° 0.1 mm 8 mps 757 mmHg 76%
    14:00 +2°C° 0 mm 6 mps 757 mmHg 74%
    15:00 +1°C° 0 mm 5 mps 758 mmHg 73%
    16:00 +1°C° 0 mm 4 mps 759 mmHg 71%
    17:00 +1°C° 0 mm 3 mps 760 mmHg 74%
    18:00 0°C° 0 mm 3 mps 760 mmHg 77%
    19:00 +1°C° 0 mm 2 mps 761 mmHg 80%
    20:00 -1°C° 0 mm 2 mps 761 mmHg 81%
    21:00 -1°C° 0 mm 2 mps 761 mmHg 82%
    22:00 +1°C° 0 mm 1 mps 761 mmHg 83%
    23:00 -1°C° 0 mm 2 mps 761 mmHg 83%

    11 December, Wednesday

    Time Temperature Precipitation Wind Pressure Humidity
    00:00 -1°C° 0 mm 2 mps 761 mmHg 83%
    01:00 -1°C° 0 mm 2 mps 760 mmHg 83%
    02:00 -2°C° 0 mm 3 mps 760 mmHg 83%
    03:00 -2°C° 0 mm 3 mps 759 mmHg 82%
    04:00 -3°C° 0 mm 4 mps 759 mmHg 82%
    05:00 -3°C° 0 mm 4 mps 758 mmHg 80%
    06:00 -3°C° 0 mm 4 mps 758 mmHg 77%
    07:00 -2°C° 0 mm 5 mps 757 mmHg 75%
    08:00 -2°C° 0 mm 5 mps 757 mmHg 71%
    09:00 -1°C° 0 mm 5 mps 757 mmHg 67%
    10:00 -1°C° 0 mm 5 mps 756 mmHg 63%
    11:00 0°C° 0 mm 5 mps 756 mmHg 61%
    12:00 0°C° 0 mm 4 mps 755 mmHg 59%
    13:00 +1°C° 0 mm 4 mps 755 mmHg 56%
    14:00 +1°C° 0 mm 3 mps 754 mmHg 58%
    15:00 +1°C° 0 mm 3 mps 754 mmHg 60%
    16:00 +1°C° 0 mm 2 mps 754 mmHg 62%
    17:00 +1°C° 0 mm 2 mps 754 mmHg 63%
    18:00 +1°C° 0 mm 2 mps 753 mmHg 63%
    19:00 -1°C° 0 mm 2 mps 753 mmHg 63%
    20:00 -1°C° 0 mm 2 mps 753 mmHg 64%
    21:00 -1°C° 0 mm 2 mps 753 mmHg 66%
    22:00 -1°C° 0 mm 2 mps 752 mmHg 67%
    23:00 -1°C° 0 mm 2 mps 752 mmHg 69%

    12 December, Thursday

    Time Temperature Precipitation Wind Pressure Humidity
    00:00 +1°C° 0 mm 1 mps 752 mmHg 71%
    01:00 +1°C° 0 mm 1 mps 751 mmHg 72%
    02:00 +1°C° 0 mm 1 mps 751 mmHg 75%
    03:00 -1°C° 0 mm 2 mps 751 mmHg 77%
    04:00 -1°C° 0 mm 2 mps 750 mmHg 79%
    05:00 -1°C° 0.1 mm 2 mps 750 mmHg 84%
    06:00 -1°C° 0.1 mm 3 mps 750 mmHg 90%
    07:00 -1°C° 0.1 mm 3 mps 750 mmHg 95%
    08:00 0°C° 0.1 mm 3 mps 750 mmHg 96%
    09:00 +1°C° 0.1 mm 3 mps 751 mmHg 96%
    10:00 +1°C° 0.1 mm 3 mps 751 mmHg 96%
    11:00 +2°C° 0 mm 3 mps 751 mmHg 91%
    12:00 +2°C° 0 mm 3 mps 751 mmHg 87%
    13:00 +2°C° 0 mm 3 mps 750 mmHg 83%
    14:00 +2°C° 0 mm 3 mps 750 mmHg 85%
    15:00 +1°C° 0 mm 3 mps 751 mmHg 87%
    16:00 0°C° 0 mm 3 mps 751 mmHg 90%
    17:00 0°C° 0 mm 3 mps 751 mmHg 90%
    18:00 0°C° 0 mm 3 mps 751 mmHg 91%
    19:00 0°C° 0 mm 3 mps 751 mmHg 92%
    20:00 0°C° 0 mm 3 mps 751 mmHg 92%
    21:00 0°C° 0 mm 3 mps 751 mmHg 93%
    22:00 0°C° 0 mm 3 mps 750 mmHg 93%
    23:00 -1°C° 0 mm 3 mps 750 mmHg 92%
    Show more